VR2OT-10 Weather Reports


time (UTC)temp
C
wind
direction
speed
KPH
gust
KPH
rain 1hr
cm
rain 24hr
cm
rain mn
cm
humidity
%
barometer
mb
20260508020218 -17 0.0 0.0 0.00 0.00 0.00
20260508014718 27 135 4.8 6.4 0.00 0.00 0.00 77 1013.8
20260508013219 27 135 4.8 8.0 0.00 0.00 0.00 77 1013.6
20260508011718 27 1.6 4.8 0.00 0.00 0.00 77 1013.5
20260508010217 27 225 1.6 4.8 0.00 0.00 0.00 80 1013.5
20260508004717 27 225 1.6 4.8 0.00 0.00 0.00 80 1013.5
20260508003219 -17 0.0 0.0 0.00 0.00 0.00
20260508001718 26 225 1.6 4.8 0.00 0.00 0.00 86 1013.3
20260508000219 26 225 0.0 3.2 0.00 0.00 0.00 87 1013.3
20260507234717 26 180 0.0 1.6 0.00 0.00 0.00 90 1013.2
20260507233217 25 0.0 0.0 0.00 0.00 0.00 89 1012.8
20260507231717 -17 0.0 0.0 0.00 0.00 0.00
20260507230218 24 135 1.6 4.8 0.00 0.00 0.00 92 1012.6
20260507224717 23 135 3.2 4.8 0.00 0.00 0.00 91 1012.3
20260507223219 23 180 3.2 4.8 0.00 0.00 0.00 90 1012.3
20260507221718 23 180 3.2 4.8 0.00 0.00 0.00 89 1012.3
20260507220218 23 135 3.2 4.8 0.00 0.00 0.00 90 1012.0
20260507214718 23 135 4.8 4.8 0.00 0.00 0.00 89 1011.8
20260507213219 23 135 3.2 4.8 0.00 0.00 0.00 88 1011.7
20260507211717 23 135 1.6 4.8 0.00 0.00 0.00 88 1011.6
20260507210219 23 135 4.8 6.4 0.00 0.00 0.00 88 1011.3
20260507204718 23 135 4.8 6.4 0.00 0.00 0.00 87 1011.2
20260507203217 23 135 8.0 9.7 0.00 0.00 0.00 87 1011.1
20260507201717 23 135 6.4 8.0 0.00 0.00 0.00 87 1011.0
20260507200218 23 135 4.8 8.0 0.00 0.00 0.00 87 1010.8
20260507194717 23 135 4.8 4.8 0.00 0.00 0.00 87 1010.8
20260507193218 -17 0.0 0.0 0.00 0.00 0.00
20260507191717 23 135 1.6 3.2 0.00 0.00 0.00 87 1011.0
20260507190217 -17 0.0 0.0 0.00 0.00 0.00
20260507184717 23 0.0 0.0 0.00 0.00 0.00 86 1011.3
20260507183218 -17 0.0 0.0 0.00 0.00 0.00
20260507181717 23 180 0.0 3.2 0.00 0.00 0.00 86 1011.7
20260507180218 23 180 1.6 4.8 0.00 0.00 0.00 87 1011.7
20260507174717 23 180 1.6 4.8 0.00 0.00 0.00 87 1011.8
20260507173217 23 135 1.6 4.8 0.00 0.00 0.00 86 1011.8
20260507171718 23 90 1.6 6.4 0.00 0.00 0.00 86 1011.8
20260507170218 23 90 4.8 6.4 0.00 0.00 0.00 87 1012.1
20260507164717 23 90 6.4 11.3 0.00 0.00 0.00 86 1012.1
20260507163218 -17 0.0 0.0 0.00 0.00 0.00
20260507161718 23 90 4.8 9.7 0.00 0.00 0.00 86 1012.3
20260507160218 23 90 1.6 4.8 0.00 0.00 0.00 85 1012.3
20260507154718 23 90 4.8 9.7 0.00 0.00 0.00 85 1012.3
20260507153219 23 90 4.8 9.7 0.00 0.00 0.00 85 1012.5
20260507151717 23 90 3.2 6.4 0.00 0.00 0.00 85 1012.7
20260507150218 -17 0.0 0.0 0.00 0.00 0.00
20260507144718 23 135 4.8 9.7 0.00 0.00 0.00 85 1012.6
20260507143218 23 90 6.4 9.7 0.00 0.00 0.00 85 1012.3
20260507141718 23 135 6.4 11.3 0.00 0.00 0.00 85 1012.3
20260507140218 23 135 4.8 9.7 0.00 0.00 0.00 85 1012.3
20260507134717 23 135 6.4 12.9 0.00 0.00 0.00 85 1012.2
20260507133218 23 135 4.8 11.3 0.00 0.00 0.00 85 1011.8
20260507131717 -17 0.0 0.0 0.00 0.00 0.00
20260507130217 23 135 6.4 9.7 0.00 0.00 0.00 84 1011.5
20260507124718 23 135 8.0 11.3 0.00 0.00 0.00 84 1011.3
20260507123219 23 135 8.0 11.3 0.00 0.00 0.00 84 1011.1
20260507121718 23 135 9.7 12.9 0.00 0.00 0.00 83 1011.2
20260507120218 23 135 11.3 16.1 0.00 0.00 0.00 83 1010.8
20260507114718 23 135 11.3 16.1 0.00 0.00 0.00 82 1010.7
20260507113218 23 135 11.3 14.5 0.00 0.00 0.00 82 1010.6
20260507111718 24 135 12.9 17.7 0.00 0.00 0.00 82 1010.6
20260507110219 24 135 14.5 22.5 0.00 0.00 0.00 82 1010.5
20260507104718 24 135 16.1 20.9 0.00 0.00 0.00 80 1010.3
20260507103218 24 135 14.5 20.9 0.00 0.00 0.00 79 1010.1
20260507101717 24 135 14.5 20.9 0.00 0.00 0.00 78 1010.1
20260507100217 25 135 16.1 20.9 0.00 0.00 0.00 76 1009.8
20260507094718 25 135 14.5 20.9 0.00 0.00 0.00 76 1010.0
20260507093219 25 135 16.1 20.9 0.00 0.00 0.00 74 1010.0
20260507091718 25 135 16.1 22.5 0.00 0.00 0.00 74 1009.7
20260507090218 25 135 14.5 19.3 0.00 0.00 0.00 72 1009.7
20260507084717 25 135 14.5 17.7 0.00 0.00 0.00 71 1009.7
20260507083217 25 135 14.5 20.9 0.00 0.00 0.00 70 1009.7
20260507081718 25 135 14.5 17.7 0.00 0.00 0.00 70 1009.8
20260507080219 25 135 14.5 20.9 0.00 0.00 0.00 70 1010.2
20260507074718 26 135 14.5 20.9 0.00 0.00 0.00 70 1010.2
20260507073218 -17 0.0 0.0 0.00 0.00 0.00
20260507071717 25 135 16.1 22.5 0.00 0.00 0.00 70 1010.5
20260507070217 25 135 17.7 25.7 0.00 0.00 0.00 70 1010.7
20260507064717 26 135 17.7 25.7 0.00 0.00 0.00 69 1010.7
20260507063218 26 135 19.3 27.4 0.00 0.00 0.00 68 1011.0
20260507061717 26 135 17.7 24.1 0.00 0.00 0.00 66 1011.2
20260507060219 -17 0.0 0.0 0.00 0.00 0.00
20260507054718 26 135 16.1 22.5 0.00 0.00 0.00 69 1011.3
20260507053218 26 135 16.1 22.5 0.00 0.00 0.00 69 1011.5
20260507051718 -17 0.0 0.0 0.00 0.00 0.00